Regional Weather Roundup
Issued by NWS

Home | Current Version | Previous Version | Graphics & Text | Print | Product List | Glossary On
Versions: 1 2 3 4 5 6 7 8 9 10 11 12 13 14 15 16 17 18 19 20 21 22 23 24 25 26 27 28 29 30 31 32 33 34 35 36 37 38 39 40 41 42 43 44 45 46 47 48 49 50
000
ASUS43 KLOT 052303
RWRIL

ILLINOIS REGIONAL WEATHER ROUNDUP
NATIONAL WEATHER SERVICE CHICAGO/ROMEOVILLE IL
500 PM CST MON DEC 05 2016

NOTE: "FAIR" INDICATES FEW OR NO CLOUDS BELOW 12,000 FEET WITH NO
SIGNIFICANT WEATHER AND/OR OBSTRUCTIONS TO VISIBILITY.

* THESE STATIONS ARE NOT UNDER NWS QUALITY CONTROL. THEY ALSO MAY NOT
  REPORT WEATHER SUCH AS PRECIPITATION OR FOG.

ILZ001-002-007-009-015-016-024-060000-
NORTHWEST ILLINOIS

CITY           SKY/WX    TMP DP  RH WIND       PRES   REMARKS
MOLINE         CLOUDY    35  31  85 SE9       29.91F FOG     WCI  28
STERLING*      CLOUDY    33  31  92 SE5       29.95F FOG     WCI  29
$$

ILZ003-004-008-010-011-017-018-060000-
NORTH CENTRAL ILLINOIS

CITY           SKY/WX    TMP DP  RH WIND       PRES   REMARKS
ROCKFORD       CLOUDY    32  30  92 S12       29.99R FOG     WCI  23
FREEPORT*      CLOUDY    32  31  98 S10       29.97S FOG     WCI  24
ROCHELLE*      CLOUDY    31  31  99 SE9       29.96F FOG     WCI  23
$$

ILZ005-006-012>014-019>023-060000-
NORTHEAST ILLINOIS

CITY           SKY/WX    TMP DP  RH WIND       PRES   REMARKS
CHICAGO-OHARE  CLOUDY    32  30  92 S7        29.99S WCI  26
CHICAGO-MIDWAY CLOUDY    33  30  88 S5        30.00F WCI  29
AURORA         CLOUDY    33  31  92 SE8       29.99S FOG     WCI  26
LANSING*       CLOUDY    32  32 100 S8        30.00F WCI  25
WAUKEGAN       CLOUDY    33  31  92 S5        29.98F FOG     WCI  29
DUPAGE AIRPORT CLOUDY    32  29  88 SE8       29.97F WCI  25
WHEELING       CLOUDY    33  30  88 S6        30.01S WCI  28
NORTHERLY ISL    N/A     32  30  93 S5          N/A  WCI  27
$$

LMZ740>746-060000-
SOUTHERN LAKE MICHIGAN

STATION/POSITION SKY/WX   TEMP    WIND        PRES    VSBY  WAVE
                          AIR SEA DIR/SP/G                  HT/PER
                          (F)     (DEG/KT/KT) (MB)    (MI)  (FT/S)
HARRISON CRIB              35     170/  8/ 10   N/A
BURNHAM HARBOR             33     150/  5/  8   N/A
CALUMET HARBOR             32     140/  4/  6 1015.5F
BURNS HARBOR               33     160/  6/ 10 1016.9S
$$

ILZ025>027-034>036-040-047-049-050-058-095>099-060000-
WEST-CENTRAL ILLINOIS

CITY           SKY/WX    TMP DP  RH WIND       PRES   REMARKS
QUINCY         PTCLDY    37  35  92 E7        29.86F FOG     WCI  32
GALESBURG*     CLOUDY    34  33  95 SE6       29.91S WCI  29
MACOMB*        CLOUDY    37  36  95 SE9       29.94R WCI  30
JACKSONVILLE*  CLOUDY    36  34  92 E7        29.90F WCI  31
$$

ILZ028>032-037-038-041>044-048-051>054-059>061-060000-
CENTRAL ILLINOIS

CITY           SKY/WX    TMP DP  RH WIND       PRES   REMARKS
BLOOMINGTON    CLOUDY    33  32  96 SE12      29.95F WCI  24
DECATUR        CLOUDY    35  33  92 E6        29.94F WCI  30
PEORIA         CLOUDY    35  33  92 SE9       29.94S WCI  28
SPRINGFIELD    PTCLDY    38  35  89 E7        29.92F WCI  33
TAYLORVILLE    NOT AVBL
$$

ILZ033-039-045-046-055>057-062-063-060000-
EAST-CENTRAL ILLINOIS

CITY           SKY/WX    TMP DP  RH WIND       PRES   REMARKS
CHAMPAIGN      CLOUDY    35  33  92 E7        29.96S WCI  29
MATTOON        CLEAR     37  32  82 SE7       29.94F WCI  32
PARIS*         CLEAR     39  36  86 SE5       29.97F
$$

ILZ079-100>102-060000-
SOUTHWEST ILLINOIS

CITY           SKY/WX    TMP DP  RH WIND       PRES   REMARKS
ALTON          PTCLDY    39  36  87 SE9       29.90F WCI  33
BELLEVILLE     CLEAR     39  37  91 E8        29.90S WCI  34
CAHOKIA*       CLEAR     41  35  79 E8        29.89S
SPARTA*        CLEAR     37  33  87 E6        29.92R WCI  32
$$

ILZ064>066-069>071-074>076-080>082-084>086-088>090-092>094-060000-
SOUTH-CENTRAL ILLINOIS

CITY           SKY/WX    TMP DP  RH WIND       PRES   REMARKS
CARBONDALE     CLOUDY    40  36  86 E6        29.92S
CAIRO*         MOCLDY    41  36  83 NE6       29.89S
MARION         MOCLDY    43  37  81 E9        29.93S
CENTRALIA*     MOCLDY    38  35  89 CALM      29.92S
SALEM*         PTCLDY    39  34  81 E3        29.92F
$$

ILZ067-068-072-073-078-083-087-091-060000-
SOUTHEAST ILLINOIS

CITY           SKY/WX    TMP DP  RH WIND       PRES   REMARKS
LAWRENCEVILLE  CLOUDY    38  34  85 NE6       29.96F WCI  33
HARRISBURG*    CLOUDY    41  37  85 E8        29.93F
ROBINSON*      CLEAR     37  34  87 E6        29.97F WCI  33
CARMI*         PTCLDY    40  37  89 E7        29.93F
$$

ABBREVIATIONS USED IN REMARKS
   TC - TEMPERATURE IN CELSIUS
  WCI - WIND CHILL INDEX
   HX - HEAT INDEX
  VSB - VISIBILITY
$$





USA.gov is the U.S. government's official web portal to all federal, state and local government web resources and services.